GW1337 Weather Reports


Display with metric or nautical units.
time (UTC)temp
F
wind
direction
speed
MPH
gust
MPH
rain 1hr
in
rain 24hr
in
rain mn
in
humidity
%
barometer
mb
20260510164128 83 31 0.0 2.0 0.00 0.00 0.00 52 1014.2
20260510163623 82 32 1.0 2.0 0.00 0.00 0.00 51 1014.1
20260510163120 82 27 1.0 2.0 0.00 0.00 0.00 55 1014.2
20260510162614 82 123 1.0 1.0 0.00 0.00 0.00 50 1014.2
20260510162111 80 26 0.0 0.0 0.00 0.00 0.00 52 1014.1
20260510161607 81 26 1.0 2.0 0.00 0.00 0.00 55 1013.9
20260510161104 82 26 0.0 2.0 0.00 0.00 0.00 53 1014.4
20260510160601 82 26 1.0 1.0 0.00 0.00 0.00 53 1014.0
20260510160100 82 25 1.0 2.0 0.00 0.00 0.00 51 1014.1
20260510155557 81 84 0.0 2.0 0.00 0.00 0.00 54 1014.3
20260510155054 80 68 0.0 1.0 0.00 0.00 0.00 55 1014.3
20260510154549 81 72 1.0 2.0 0.00 0.00 0.00 54 1014.3
20260510154045 80 99 1.0 2.0 0.00 0.00 0.00 57 1014.3
20260510153540 80 105 0.0 1.0 0.00 0.00 0.00 58 1014.7
20260510153037 79 105 0.0 0.0 0.00 0.00 0.00 58 1014.2
20260510152534 79 107 0.0 1.0 0.00 0.00 0.00 57 1014.4
20260510152030 79 44 0.0 2.0 0.00 0.00 0.00 61 1014.6
20260510151527 79 94 0.0 0.0 0.00 0.00 0.00 57 1014.4
20260510151024 78 93 1.0 1.0 0.00 0.00 0.00 59 1014.6
20260510150519 77 67 0.0 1.0 0.00 0.00 0.00 63 1014.4
20260510150016 77 71 0.0 1.0 0.00 0.00 0.00 59 1014.1
20260510145512 76 71 0.0 1.0 0.00 0.00 0.00 61 1014.2
20260510145008 76 71 0.0 1.0 0.00 0.00 0.00 63 1014.2
20260510144505 76 71 0.0 1.0 0.00 0.00 0.00 64 1014.2
20260510144001 75 67 0.0 0.0 0.00 0.00 0.00 65 1014.2
20260510143457 75 67 0.0 1.0 0.00 0.00 0.00 68 1014.2
20260510142954 73 68 0.0 0.0 0.00 0.00 0.00 66 1014.4
20260510142450 72 67 0.0 0.0 0.00 0.00 0.00 70 1014.5
20260510141947 71 68 0.0 1.0 0.00 0.00 0.00 70 1014.4
20260510141444 70 70 0.0 0.0 0.00 0.00 0.00 73 1014.4
20260510140941 68 68 0.0 0.0 0.00 0.00 0.00 76 1014.6
20260510140437 67 72 0.0 0.0 0.00 0.00 0.00 77 1014.5
20260510135936 66 45 0.0 1.0 0.00 0.00 0.00 78 1014.6
20260510135432 66 38 0.0 2.0 0.00 0.00 0.00 79 1014.6
20260510134930 65 115 1.0 1.0 0.00 0.00 0.00 80 1014.3
20260510134426 64 121 0.0 1.0 0.00 0.00 0.00 82 1014.2
20260510133923 64 104 0.0 0.0 0.00 0.00 0.00 83 1014.4
20260510133419 63 66 0.0 0.0 0.00 0.00 0.00 85 1014.7
20260510132914 62 108 0.0 1.0 0.00 0.00 0.00 85 1014.7
20260510132413 62 86 0.0 1.0 0.00 0.00 0.00 86 1014.5
20260510131909 61 82 0.0 0.0 0.00 0.00 0.00 87 1014.4
20260510131407 61 72 0.0 0.0 0.00 0.00 0.00 88 1014.7
20260510130903 60 71 0.0 0.0 0.00 0.00 0.00 89 1014.6
20260510130401 60 73 0.0 0.0 0.00 0.00 0.00 90 1014.7
20260510125857 59 73 0.0 0.0 0.00 0.00 0.00 91 1014.8
20260510125353 59 69 0.0 0.0 0.00 0.00 0.00 92 1014.6
20260510124850 58 69 0.0 0.0 0.00 0.00 0.00 93 1014.8
20260510124347 57 68 0.0 0.0 0.00 0.00 0.00 95 1014.6
20260510123843 57 67 0.0 0.0 0.00 0.00 0.00 96 1014.6
20260510123338 57 67 0.0 0.0 0.00 0.00 0.00 97 1014.6
20260510122835 56 67 0.0 0.0 0.00 0.00 0.00 98 1014.5
20260510122330 55 62 0.0 0.0 0.00 0.00 0.00 98 1014.6
20260510121827 55 91 0.0 0.0 0.00 0.00 0.00 99 1014.6
20260510121325 55 91 0.0 0.0 0.00 0.00 0.00 99 1014.2
20260510120822 54 91 0.0 0.0 0.00 0.00 0.00 99 1014.5
20260510120319 54 91 0.0 0.0 0.00 0.00 0.00 99 1014.3
20260510115814 53 89 0.0 0.0 0.00 0.00 0.00 99 1014.1
20260510115312 53 91 0.0 0.0 0.00 0.00 0.00 99 1013.9
20260510114807 53 99 0.0 0.0 0.00 0.00 0.00 99 1013.9
20260510114305 53 89 0.0 0.0 0.00 0.00 0.00 99 1014.1
20260510113800 53 87 0.0 0.0 0.00 0.00 0.00 99 1014.1
20260510113257 53 77 0.0 0.0 0.00 0.00 0.00 99 1014.1
20260510112753 53 78 0.0 0.0 0.00 0.00 0.00 99 1014.1
20260510112250 52 67 0.0 0.0 0.00 0.00 0.00 99 1013.8
20260510111746 52 68 0.0 0.0 0.00 0.00 0.00 99 1013.7
20260510111243 52 68 0.0 0.0 0.00 0.00 0.00 99 1013.7
20260510110742 52 68 0.0 0.0 0.00 0.00 0.00 99 1013.6
20260510110241 51 68 0.0 0.0 0.00 0.00 0.00 99 1013.3
20260510105740 51 68 0.0 0.0 0.00 0.00 0.00 99 1013.3
20260510105235 51 66 0.0 0.0 0.00 0.00 0.00 99 1013.5
20260510104732 51 66 0.0 0.0 0.00 0.00 0.00 99 1013.6
20260510104230 51 66 0.0 0.0 0.00 0.00 0.00 99 1013.3
20260510103726 50 66 0.0 0.0 0.00 0.00 0.00 99 1013.3
20260510103223 50 73 0.0 0.0 0.00 0.00 0.00 99 1013.2
20260510102723 50 88 0.0 0.0 0.00 0.00 0.00 99 1012.8
20260510102219 50 88 0.0 0.0 0.00 0.00 0.00 99 1012.6
20260510101716 50 88 0.0 0.0 0.00 0.00 0.00 99 1012.9
20260510101215 50 88 0.0 0.0 0.00 0.00 0.00 99 1012.8
20260510100710 50 88 0.0 0.0 0.00 0.00 0.00 99 1012.9
20260510100209 50 88 0.0 0.0 0.00 0.00 0.00 99 1013.0
20260510095704 50 88 0.0 0.0 0.00 0.00 0.00 99 1013.2
20260510095159 50 88 0.0 0.0 0.00 0.00 0.00 99 1013.0
20260510094657 50 91 0.0 0.0 0.00 0.00 0.00 99 1012.9
20260510094154 50 90 0.0 0.0 0.00 0.00 0.00 99 1012.5
20260510093650 50 95 0.0 0.0 0.00 0.00 0.00 99 1012.6
20260510093147 51 73 0.0 1.0 0.00 0.00 0.00 99 1012.7
20260510092643 51 90 0.0 0.0 0.00 0.00 0.00 99 1012.7
20260510092139 51 101 0.0 1.0 0.00 0.00 0.00 99 1012.5
20260510091635 51 85 0.0 0.0 0.00 0.00 0.00 99 1012.5
20260510091131 51 87 0.0 0.0 0.00 0.00 0.00 99 1012.4
20260510090629 51 87 0.0 0.0 0.00 0.00 0.00 99 1012.8
20260510090125 51 60 1.0 1.0 0.00 0.00 0.00 99 1012.7
20260510085620 51 60 0.0 0.0 0.00 0.00 0.00 99 1012.7
20260510085116 51 90 0.0 1.0 0.00 0.00 0.00 99 1012.5
20260510084612 50 94 0.0 0.0 0.00 0.00 0.00 99 1012.5
20260510084109 50 68 0.0 0.0 0.00 0.00 0.00 99 1011.9
20260510083605 50 67 0.0 0.0 0.00 0.00 0.00 99 1012.0
20260510083101 50 67 0.0 0.0 0.00 0.00 0.00 99 1012.0
20260510082558 50 67 0.0 0.0 0.00 0.00 0.00 99 1011.9
20260510082054 50 67 0.0 0.0 0.00 0.00 0.00 99 1011.9
20260510081549 50 67 0.0 0.0 0.00 0.00 0.00 99 1011.9
20260510081045 50 67 0.0 0.0 0.00 0.00 0.00 99 1011.9
20260510080544 50 67 0.0 0.0 0.00 0.00 0.00 99 1011.7
20260510080041 50 67 0.0 0.0 0.00 0.00 0.00 99 1011.6
20260510075539 50 67 0.0 0.0 0.00 0.00 0.00 99 1011.8
20260510075035 50 68 0.0 0.0 0.00 0.00 0.00 99 1011.7
20260510074533 50 67 0.0 0.0 0.00 0.00 0.00 99 1011.8
20260510074028 50 67 0.0 0.0 0.00 0.00 0.00 99 1011.9
20260510073524 50 67 0.0 0.0 0.00 0.00 0.00 99 1011.8
20260510073022 50 67 0.0 0.0 0.00 0.00 0.00 99 1011.5
20260510072518 50 67 0.0 0.0 0.00 0.00 0.00 99 1011.7
20260510072014 50 67 0.0 0.0 0.00 0.00 0.00 99 1011.4
20260510071510 50 67 0.0 0.0 0.00 0.00 0.00 99 1011.3
20260510071009 50 67 0.0 0.0 0.00 0.00 0.00 99 1011.2
20260510070505 50 67 0.0 0.0 0.00 0.00 0.00 99 1011.2
20260510070001 50 67 0.0 0.0 0.00 0.00 0.00 99 1011.1
20260510065458 50 67 0.0 0.0 0.00 0.00 0.00 99 1011.3
20260510064954 50 67 0.0 0.0 0.00 0.00 0.00 99 1011.1
20260510064451 50 67 0.0 0.0 0.00 0.00 0.00 99 1011.1
20260510063948 51 67 0.0 0.0 0.00 0.00 0.00 99 1011.3
20260510063444 51 67 0.0 0.0 0.00 0.00 0.00 99 1011.2
20260510062942 51 67 0.0 0.0 0.00 0.00 0.00 99 1011.3
20260510062437 51 67 0.0 0.0 0.00 0.00 0.00 99 1011.4
20260510061932 51 67 0.0 0.0 0.00 0.00 0.00 99 1011.3
20260510061429 51 67 0.0 0.0 0.00 0.00 0.00 99 1011.6
20260510060925 51 68 0.0 0.0 0.00 0.00 0.00 99 1011.5
20260510060423 51 67 0.0 0.0 0.00 0.00 0.00 99 1011.6
20260510055919 51 67 0.0 0.0 0.00 0.00 0.00 99 1011.4
20260510055415 51 68 0.0 0.0 0.00 0.00 0.00 99 1011.4
20260510054913 51 68 0.0 0.0 0.00 0.00 0.00 99 1011.7
20260510054408 51 67 0.0 0.0 0.00 0.00 0.00 99 1011.5
20260510053903 51 67 0.0 0.0 0.00 0.00 0.00 99 1011.5
20260510053359 51 67 0.0 0.0 0.00 0.00 0.00 99 1011.5
20260510052855 51 67 0.0 0.0 0.00 0.00 0.00 99 1011.7
20260510052351 51 67 0.0 0.0 0.00 0.00 0.00 99 1011.8
20260510051847 51 68 0.0 0.0 0.00 0.00 0.00 99 1011.8
20260510051344 51 67 0.0 0.0 0.00 0.00 0.00 99 1011.7
20260510050841 51 68 0.0 0.0 0.00 0.00 0.00 99 1012.0
20260510050338 51 67 0.0 0.0 0.00 0.00 0.00 99 1011.8
20260510045835 51 67 0.0 0.0 0.00 0.00 0.00 99 1011.8
20260510045332 52 68 0.0 0.0 0.00 0.00 0.00 99 1011.9
20260510044829 52 68 0.0 0.0 0.00 0.00 0.00 99 1011.7
20260510044326 52 67 0.0 0.0 0.00 0.00 0.00 99 1011.9
20260510043822 52 67 0.0 0.0 0.00 0.00 0.00 99 1011.9
20260510043318 52 67 0.0 0.0 0.00 0.00 0.00 99 1012.0
20260510042816 52 67 0.0 0.0 0.00 0.00 0.00 99 1012.0
20260510042312 52 67 0.0 0.0 0.00 0.00 0.00 99 1011.9
20260510041808 52 67 0.0 0.0 0.00 0.00 0.00 99 1012.1
20260510041306 52 67 0.0 0.0 0.00 0.00 0.00 98 1012.1
20260510040803 52 67 0.0 0.0 0.00 0.00 0.00 98 1011.9
20260510040259 52 67 0.0 0.0 0.00 0.00 0.00 98 1012.0
20260510035755 52 67 0.0 0.0 0.00 0.00 0.00 98 1012.1
20260510035251 52 67 0.0 0.0 0.00 0.00 0.00 98 1011.8
20260510034747 52 67 0.0 0.0 0.00 0.00 0.00 98 1012.0
20260510034245 53 67 0.0 0.0 0.00 0.00 0.00 98 1011.9
20260510033741 53 67 0.0 0.0 0.00 0.00 0.00 98 1012.0
20260510033238 53 67 0.0 0.0 0.00 0.00 0.00 98 1012.3
20260510032734 53 67 0.0 0.0 0.00 0.00 0.00 98 1011.8
20260510032231 53 67 0.0 0.0 0.00 0.00 0.00 97 1012.0
20260510031726 53 67 0.0 0.0 0.00 0.00 0.00 97 1011.9
20260510031222 53 67 0.0 0.0 0.00 0.00 0.00 97 1011.8
20260510030721 53 67 0.0 0.0 0.00 0.00 0.00 97 1011.7
20260510030219 53 67 0.0 0.0 0.00 0.00 0.00 97 1011.6
20260510025717 53 67 0.0 0.0 0.00 0.00 0.00 96 1011.4
20260510025213 53 67 0.0 0.0 0.00 0.00 0.00 96 1011.5
20260510024710 54 57 0.0 0.0 0.00 0.00 0.00 96 1011.5
20260510024207 54 57 0.0 0.0 0.00 0.00 0.00 96 1011.6
20260510023702 54 57 0.0 0.0 0.00 0.00 0.00 95 1011.5
20260510023200 54 57 0.0 0.0 0.00 0.00 0.00 95 1011.6
20260510022656 54 57 0.0 0.0 0.00 0.00 0.00 95 1011.6
20260510022150 55 57 0.0 0.0 0.00 0.00 0.00 94 1011.7
20260510021646 55 57 0.0 0.0 0.00 0.00 0.00 94 1011.7
20260510021144 55 57 0.0 0.0 0.00 0.00 0.00 94 1011.6
20260510020638 55 57 0.0 0.0 0.00 0.00 0.00 94 1011.6
20260510020133 55 57 0.0 0.0 0.00 0.00 0.00 93 1011.5
20260510015630 55 57 0.0 0.0 0.00 0.00 0.00 93 1011.5
20260510015127 55 57 0.0 0.0 0.00 0.00 0.00 93 1011.3
20260510014621 56 57 0.0 0.0 0.00 0.00 0.00 93 1011.4
20260510014120 56 57 0.0 0.0 0.00 0.00 0.00 92 1011.4
20260510013619 56 57 0.0 0.0 0.00 0.00 0.00 92 1011.4
20260510013115 56 57 0.0 0.0 0.00 0.00 0.00 92 1011.5
20260510012615 56 57 0.0 0.0 0.00 0.00 0.00 91 1011.4
20260510012111 56 57 0.0 0.0 0.00 0.00 0.00 91 1011.3
20260510011611 56 57 0.0 0.0 0.00 0.00 0.00 91 1011.2
20260510011107 56 57 0.0 0.0 0.00 0.00 0.00 90 1011.1
20260510010603 57 57 0.0 0.0 0.00 0.00 0.00 90 1011.0
20260510010101 57 57 0.0 0.0 0.00 0.00 0.00 90 1011.0
20260510005556 57 57 0.0 0.0 0.00 0.00 0.00 89 1010.9
20260510005054 57 57 0.0 0.0 0.00 0.00 0.00 88 1010.9
20260510004552 57 57 0.0 0.0 0.00 0.00 0.00 88 1011.0
20260510004049 58 57 0.0 0.0 0.00 0.00 0.00 87 1011.1
20260510003546 58 57 0.0 0.0 0.00 0.00 0.00 86 1011.2
20260510003041 58 57 0.0 0.0 0.00 0.00 0.00 85 1011.0
20260510002537 59 57 0.0 0.0 0.00 0.00 0.00 85 1011.0
20260510002034 59 56 0.0 0.0 0.00 0.00 0.00 85 1010.9
20260510001531 59 55 1.0 1.0 0.00 0.00 0.00 84 1010.8
20260510001030 59 55 0.0 0.0 0.00 0.00 0.00 83 1011.0
20260510000524 60 55 0.0 0.0 0.00 0.00 0.00 83 1010.8
20260510000022 60 55 0.0 0.0 0.00 0.00 0.00 82 1011.0
20260509235518 60 98 0.0 0.0 0.00 0.00 0.00 82 1011.1
20260509235015 60 99 0.0 0.0 0.00 0.00 0.00 82 1010.8
20260509234511 60 100 0.0 0.0 0.00 0.00 0.00 81 1010.9
20260509234010 61 85 1.0 1.0 0.00 0.00 0.00 81 1010.8
20260509233507 61 90 0.0 1.0 0.00 0.00 0.00 81 1011.1
20260509233004 61 73 0.0 0.0 0.00 0.00 0.00 80 1010.9
20260509232501 61 73 0.0 0.0 0.00 0.00 0.00 80 1010.8
20260509231956 61 75 0.0 0.0 0.00 0.00 0.00 80 1010.9
20260509231453 62 94 0.0 1.0 0.00 0.00 0.00 80 1010.9
20260509230951 62 83 0.0 0.0 0.00 0.00 0.00 79 1010.8
20260509230448 62 83 0.0 1.0 0.00 0.00 0.00 79 1010.6
20260509225944 62 86 0.0 0.0 0.00 0.00 0.00 78 1010.8
20260509225440 62 86 0.0 0.0 0.00 0.00 0.00 78 1010.6
20260509224936 62 86 0.0 0.0 0.00 0.00 0.00 78 1010.7
20260509224432 62 86 0.0 0.0 0.00 0.00 0.00 78 1010.7
20260509223929 63 89 0.0 1.0 0.00 0.00 0.00 77 1010.9
20260509223425 63 102 0.0 1.0 0.00 0.00 0.00 77 1010.7
20260509222923 63 104 0.0 0.0 0.00 0.00 0.00 76 1010.9
20260509222418 64 112 1.0 1.0 0.00 0.00 0.00 76 1010.7
20260509221914 64 342 2.0 5.0 0.00 0.00 0.00 75 1010.8
20260509221411 63 77 1.0 1.0 0.00 0.00 0.00 75 1010.6
20260509220907 63 79 0.0 0.0 0.00 0.00 0.00 76 1010.7
20260509220403 62 61 0.0 1.0 0.00 0.00 0.00 76 1011.0
20260509215859 62 66 0.0 0.0 0.00 0.00 0.00 76 1010.8
20260509215355 63 55 0.0 1.0 0.00 0.00 0.00 76 1010.6
20260509214852 63 41 1.0 1.0 0.00 0.00 0.00 75 1010.9
20260509214349 63 71 0.0 1.0 0.00 0.00 0.00 75 1010.8
20260509213847 62 71 0.0 1.0 0.00 0.00 0.00 76 1010.8
20260509213342 63 52 0.0 2.0 0.00 0.00 0.00 75 1010.8
20260509212840 63 63 0.0 0.0 0.00 0.00 0.00 75 1010.7
20260509212337 64 55 0.0 1.0 0.00 0.00 0.00 74 1010.8
20260509211833 64 54 0.0 1.0 0.00 0.00 0.00 74 1010.6
20260509211329 64 54 0.0 0.0 0.00 0.00 0.00 73 1010.7
20260509210825 64 54 0.0 1.0 0.00 0.00 0.00 74 1010.8
20260509210323 64 45 1.0 1.0 0.00 0.00 0.00 73 1010.5
20260509205823 64 45 0.0 1.0 0.00 0.00 0.00 72 1010.5
20260509205318 65 43 0.0 1.0 0.00 0.00 0.00 72 1010.8
20260509204815 65 40 0.0 1.0 0.00 0.00 0.00 71 1010.6
20260509204310 65 40 0.0 0.0 0.00 0.00 0.00 72 1010.9
20260509203807 65 40 0.0 0.0 0.00 0.00 0.00 71 1010.8
20260509203304 65 39 1.0 1.0 0.00 0.00 0.00 73 1010.9
20260509202800 65 39 0.0 2.0 0.00 0.00 0.00 72 1010.8
20260509202256 65 40 0.0 1.0 0.00 0.00 0.00 72 1010.9
20260509201755 66 44 0.0 0.0 0.00 0.00 0.00 71 1010.8
20260509201252 65 35 0.0 1.0 0.00 0.00 0.00 71 1010.7
20260509200749 65 35 0.0 1.0 0.00 0.00 0.00 73 1010.8
20260509200245 65 35 1.0 1.0 0.00 0.00 0.00 73 1010.6
20260509195741 65 43 1.0 1.0 0.00 0.00 0.00 72 1010.9
20260509195236 65 29 0.0 1.0 0.00 0.00 0.00 72 1010.8
20260509194731 66 103 0.0 0.0 0.00 0.00 0.00 70 1010.8
20260509194227 66 39 1.0 1.0 0.00 0.00 0.00 71 1011.0
20260509193724 66 58 1.0 1.0 0.00 0.00 0.00 70 1010.9
20260509193223 66 33 0.0 1.0 0.00 0.00 0.00 70 1010.6
20260509192720 67 35 1.0 1.0 0.00 0.00 0.00 70 1011.0
20260509192215 66 35 0.0 1.0 0.00 0.00 0.00 69 1011.2
20260509191711 66 35 0.0 1.0 0.00 0.00 0.00 70 1011.2
20260509191208 67 63 1.0 1.0 0.00 0.00 0.00 68 1011.2
20260509190704 67 170 0.0 1.0 0.00 0.00 0.00 69 1011.1
20260509190201 67 41 0.0 2.0 0.00 0.00 0.00 68 1011.3
20260509185659 66 28 0.0 0.0 0.00 0.00 0.00 69 1011.4
20260509185154 66 352 0.0 1.0 0.00 0.00 0.00 70 1011.6
20260509184652 66 61 0.0 1.0 0.00 0.00 0.00 70 1011.6
20260509184149 65 44 0.0 1.0 0.00 0.00 0.00 71 1011.6
20260509183645 65 53 1.0 1.0 0.00 0.00 0.00 70 1011.7
20260509183140 65 39 0.0 1.0 0.00 0.00 0.00 69 1011.8
20260509182636 66 56 1.0 1.0 0.00 0.00 0.00 69 1011.7
20260509182134 65 34 1.0 1.0 0.00 0.00 0.00 68 1011.7
20260509181632 65 56 0.0 1.0 0.00 0.00 0.00 69 1011.8
20260509181129 65 57 1.0 1.0 0.00 0.00 0.00 68 1011.7
20260509180626 65 39 1.0 1.0 0.00 0.00 0.00 68 1011.8
20260509180122 65 37 1.0 1.0 0.00 0.00 0.00 68 1011.8
20260509175618 66 38 0.0 2.0 0.00 0.00 0.00 68 1012.1
20260509175115 67 47 1.0 1.0 0.00 0.00 0.00 68 1012.1
20260509174611 67 49 0.0 1.0 0.00 0.00 0.00 67 1011.9
20260509174106 67 40 0.0 1.0 0.00 0.00 0.00 68 1012.0
20260509173602 67 34 0.0 2.0 0.00 0.00 0.00 68 1011.9
20260509173058 68 23 2.0 2.0 0.00 0.00 0.00 67 1011.7
20260509172555 68 40 1.0 2.0 0.00 0.00 0.00 67 1011.9
20260509172051 69 2 1.0 3.0 0.00 0.00 0.00 66 1011.7
20260509171547 69 20 2.0 2.0 0.00 0.00 0.00 66 1012.0
20260509171043 69 44 1.0 1.0 0.00 0.00 0.00 64 1011.6
20260509170539 70 92 0.0 2.0 0.00 0.00 0.00 65 1011.9
20260509170035 70 19 0.0 1.0 0.00 0.00 0.00 66 1011.8
20260509165534 70 59 0.0 2.0 0.00 0.00 0.00 62 1012.0
20260509165029 70 67 0.0 1.0 0.00 0.00 0.00 64 1012.0
20260509164526 71 31 0.0 1.0 0.00 0.00 0.00 66 1011.9